Probability
6 3 3 0 0 0 0 0 0 0 0 0 0 0 0 0 0 0 0 0 0 0 0 0 0 0 0 0 0 3 3 3 0 0 3 3 6 6
6 3 3 3 3 0 0 0 0 0 0 0 0 0 0 0 0 0 0 0 0 0 0 0 0 0 0 0 0 0 0 0 0 0 0 3 3 3
6 3 3 3 3 3 0 0 0 0 0 0 0 0 0 0 0 0 0 0 0 0 0 0 0 0 0 0 0 0 0 0 0 0 0 3 3 3
6 3 3 3 3 3 3 3 0 0 0 0 0 0 0 0 0 0 0 0 0 0 0 0 0 0 0 0 0 0 0 0 0 0 0 3 3 3
6 6 3 3 3 3 3 3 3 3 0 0 0 0 0 0 0 0 0 0 0 0 0 0 0 0 0 0 0 0 0 0 0 0 0 0 3 3
6 6 3 3 3 3 3 3 3 3 3 0 0 0 0 0 0 0 0 0 0 0 0 0 0 0 0 0 0 0 0 0 0 0 0 0 0 0
6 6 6 6 3 3 3 3 3 3 3 3 0 0 0 0 0 0 0 0 0 0 0 0 0 0 0 0 0 0 0 0 0 0 0 0 0 0
3 3 3 3 3 3 3 3 3 3 3 3 3 3 0 0 0 0 0 0 0 0 0 0 0 0 0 0 0 0 0 0 0 0 0 0 0 0
3 3 3 3 3 3 3 0 0 3 3 3 3 3 3 0 0 0 0 0 0 0 0 0 0 0 0 0 0 0 0 0 0 0 0 0 0 0
3 3 3 3 3 3 3 3 3 3 3 3 3 3 3 3 0 0 0 0 0 0 0 0 0 0 0 0 0 0 0 0 0 0 0 0 0 0
3 3 3 3 3 3 3 3 3 3 3 0 0 3 0 0 0 0 0 0 0 0 0 0 0 0 0 0 0 0 0 0 0 0 0 0 0 0
3 3 3 3 3 0 3 3 3 3 3 3 0 0 0 0 0 0 0 0 0 0 0 0 0 0 0 0 0 0 0 0 0 0 0 0 0 0
3 3 3 3 0 0 0 3 3 3 3 3 3 3 0 0 0 0 0 0 0 0 0 0 0 0 0 0 0 0 0 0 0 0 0 0 0 0
3 3 3 3 0 0 0 3 3 0 3 3 3 3 3 3 0 0 0 0 0 0 0 0 0 0 0 0 0 0 0 0 0 0 0 0 0 0
3 3 3 0 0 0 0 0 0 0 0 0 3 3 3 3 0 0 0 0 0 0 0 0 0 0 0 0 0 0 0 0 0 0 0 0 0 0
0 3 0 0 0 0 0 0 0 0 0 0 0 0 0 0 0 0 0 0 0 0 0 0 0 0 0 0 0 0 0 0 0 0 0 0 0 0
0 0 0 0 0 0 0 0 0 0 0 0 0 0 0 0 0 0 0 0 0 0 0 0 0 0 0 0 0 0 0 0 0 0 0 0 0 0
0 0 0 0 0 0 0 0 0 0 0 0 0 0 0 0 0 0 0 0 0 0 0 0 0 0 0 0 0 0 0 0 0 0 0 0 0 0
0 0 0 0 0 0 0 0 0 0 0 0 0 0 0 0 0 0 0 0 0 0 0 0 0 0 0 0 0 0 0 0 0 0 0 0 0 0
0 0 0 0 0 0 0 0 0 0 0 0 0 0 0 0 0 0 0 0 0 0 0 0 0 0 0 0 0 0 0 0 0 0 0 0 0 0
0 0 0 0 0 0 0 0 0 0 0 0 0 0 0 0 0 0 0 0 0 0 0 0 0 0 0 0 0 0 0 0 0 0 0 0 0 0
0 0 0 0 0 0 0 0 0 0 0 0 0 0 0 0 0 0 0 0 0 0 0 0 0 0 0 0 0 0 0 0 0 0 0 0 0 0
0 0 0 0 0 0 0 0 0 0 0 0 0 0 0 0 0 0 0 0 0 0 0 0 0 0 0 0 0 0 0 0 0 0 0 0 0 0
Height
5781 5779 5777 5776 5774 5773 5772 5771 5771 5770 5770 5769 5768 5767 5767 5767 5767 5767 5767 5767 5768 5769 5770 5771 5772 5773 5775 5776 5777 5779 5780 5782 5784 5786 5788 5791 5793 5795
5777 5775 5773 5772 5770 5769 5768 5767 5766 5765 5764 5764 5762 5762 5761 5760 5760 5760 5760 5760 5761 5761 5762 5763 5764 5765 5766 5767 5769 5770 5772 5773 5775 5777 5780 5782 5784 5786
5774 5771 5769 5768 5766 5764 5763 5762 5761 5760 5759 5758 5757 5756 5755 5754 5753 5753 5753 5753 5754 5754 5754 5755 5755 5756 5757 5758 5760 5761 5763 5764 5766 5768 5770 5773 5775 5777
5770 5768 5766 5764 5762 5760 5759 5757 5756 5754 5753 5752 5751 5750 5749 5748 5747 5747 5746 5746 5746 5746 5746 5747 5747 5748 5749 5750 5751 5752 5754 5755 5757 5759 5761 5763 5765 5767
5767 5764 5762 5760 5758 5757 5755 5753 5751 5749 5748 5746 5745 5744 5743 5742 5741 5740 5740 5739 5739 5739 5738 5738 5738 5739 5740 5741 5742 5744 5745 5747 5748 5750 5752 5754 5756 5758
5762 5760 5758 5756 5754 5752 5750 5748 5746 5744 5742 5741 5740 5738 5737 5735 5735 5734 5733 5732 5732 5731 5730 5730 5730 5730 5731 5732 5734 5735 5736 5737 5739 5740 5742 5744 5746 5748
5758 5756 5753 5751 5749 5747 5745 5743 5741 5739 5737 5735 5734 5733 5731 5730 5728 5727 5726 5725 5725 5724 5723 5722 5722 5722 5723 5723 5724 5726 5727 5729 5730 5731 5733 5735 5737 5738
5753 5751 5749 5746 5744 5742 5739 5737 5735 5733 5731 5729 5728 5727 5725 5724 5722 5720 5719 5719 5719 5718 5716 5716 5715 5715 5715 5716 5717 5718 5719 5720 5721 5723 5724 5726 5727 5729
5748 5746 5743 5741 5739 5736 5733 5731 5728 5726 5725 5723 5721 5720 5719 5717 5716 5714 5713 5712 5711 5711 5710 5709 5709 5708 5708 5708 5709 5709 5710 5711 5712 5714 5715 5717 5718 5719
5743 5740 5738 5735 5733 5730 5728 5725 5723 5721 5718 5716 5715 5713 5712 5710 5709 5707 5706 5705 5705 5704 5703 5703 5702 5701 5701 5700 5700 5701 5702 5703 5704 5705 5706 5707 5708 5710
5737 5734 5732 5729 5727 5724 5722 5719 5717 5715 5712 5710 5708 5706 5705 5703 5702 5701 5699 5699 5698 5697 5696 5696 5695 5694 5693 5693 5693 5694 5694 5695 5695 5696 5697 5698 5699 5699
5731 5729 5726 5724 5721 5718 5716 5713 5711 5709 5706 5704 5702 5700 5698 5697 5695 5694 5692 5691 5691 5690 5689 5688 5687 5686 5686 5686 5686 5686 5686 5686 5686 5687 5687 5688 5689 5689
5726 5723 5720 5718 5715 5713 5710 5708 5705 5703 5700 5698 5696 5694 5692 5690 5688 5687 5685 5684 5684 5683 5682 5680 5679 5678 5678 5678 5678 5677 5677 5677 5677 5677 5678 5678 5679 5679
5720 5717 5715 5712 5709 5706 5704 5702 5699 5697 5695 5692 5690 5688 5686 5684 5682 5680 5679 5677 5676 5675 5674 5672 5671 5670 5670 5669 5669 5669 5668 5668 5668 5669 5669 5669 5669 5669
5713 5711 5708 5706 5703 5700 5698 5695 5693 5690 5688 5686 5684 5682 5680 5678 5675 5674 5672 5670 5669 5667 5666 5664 5663 5662 5661 5661 5660 5660 5660 5659 5659 5659 5659 5659 5659 5659
5706 5704 5701 5699 5696 5694 5691 5689 5686 5684 5682 5680 5678 5675 5673 5671 5669 5667 5665 5663 5661 5660 5658 5657 5655 5654 5653 5653 5652 5652 5651 5651 5650 5650 5650 5650 5649 5649
5700 5698 5695 5692 5690 5688 5685 5683 5680 5678 5675 5673 5671 5669 5666 5664 5662 5659 5657 5655 5654 5652 5651 5649 5648 5646 5645 5645 5644 5643 5643 5642 5641 5641 5640 5640 5639 5639
5694 5691 5689 5686 5683 5681 5678 5676 5673 5671 5668 5666 5664 5661 5659 5657 5654 5652 5650 5648 5646 5644 5643 5642 5640 5639 5638 5637 5637 5635 5634 5633 5633 5631 5630 5630 5630 5629
5687 5684 5682 5679 5677 5674 5671 5669 5666 5664 5661 5659 5657 5654 5651 5649 5647 5644 5642 5640 5638 5637 5636 5634 5633 5631 5630 5630 5629 5627 5626 5625 5623 5622 5621 5621 5620 5620
5680 5677 5675 5672 5670 5667 5664 5662 5659 5657 5654 5652 5649 5646 5644 5641 5639 5637 5634 5632 5631 5629 5628 5626 5625 5623 5623 5622 5621 5620 5618 5617 5615 5614 5613 5612 5611 5610
5673 5671 5668 5666 5663 5661 5658 5655 5653 5650 5647 5644 5642 5639 5636 5634 5631 5629 5626 5624 5622 5621 5620 5618 5617 5615 5614 5613 5612 5611 5609 5608 5607 5606 5604 5603 5602 5601
5667 5664 5662 5659 5657 5654 5651 5648 5646 5643 5640 5637 5635 5632 5629 5626 5623 5621 5618 5616 5614 5613 5612 5610 5609 5608 5606 5605 5604 5602 5601 5600 5598 5597 5596 5595 5594 5593
5660 5658 5655 5653 5650 5647 5644 5641 5638 5636 5633 5630 5627 5624 5621 5618 5616 5613 5611 5609 5607 5605 5604 5603 5601 5600 5598 5596 5595 5594 5593 5592 5591 5589 5589 5587 5587 5586
Wind_Speed
15 15 15 15 15 15 16 16 17 17 18 18 19 20 21 22 23 23 25 26 26 26 27 28 28 29 30 31 32 32 33 34 34 34 34 33 33 32
14 15 15 14 14 15 16 17 17 18 18 18 19 20 20 21 21 22 24 24 25 26 27 28 29 29 30 30 31 32 33 34 34 35 35 35 34 35
14 14 14 14 14 15 16 17 18 18 18 19 20 20 20 21 21 22 22 24 25 27 28 29 29 30 31 31 32 32 32 33 34 34 34 35 35 36
15 15 15 14 14 14 15 17 17 17 18 19 20 20 21 21 21 22 23 24 25 26 27 29 30 30 31 32 32 32 32 33 33 34 34 34 35 35
16 16 15 15 15 15 16 17 17 18 18 19 19 20 20 21 21 22 23 24 25 26 26 27 29 29 30 31 31 32 33 33 34 34 35 35 34 35
17 17 16 16 16 17 17 18 18 19 19 19 19 19 20 21 21 22 22 23 24 25 25 26 27 28 28 30 31 31 32 32 33 34 34 34 33 34
17 17 17 17 18 19 19 20 20 20 20 20 20 19 19 20 21 22 22 23 23 24 24 25 25 26 27 28 29 30 31 32 32 33 33 33 34 34
18 19 19 19 19 20 20 21 21 21 21 21 21 21 21 22 22 22 22 22 23 23 23 23 24 25 26 28 28 30 30 31 32 32 33 33 33 34
20 20 19 20 20 21 21 21 21 21 21 22 22 22 22 22 23 23 23 22 23 23 23 23 24 25 26 27 28 28 30 31 32 32 33 33 33 34
21 20 20 21 22 22 22 21 21 20 21 21 22 22 22 22 23 23 23 22 22 23 23 23 23 25 27 28 27 28 29 31 31 31 32 33 34 34
20 20 21 21 21 22 22 21 21 21 21 21 22 22 22 23 24 24 23 23 23 22 23 23 23 25 25 27 28 28 29 30 31 32 32 32 33 34
21 21 21 21 21 21 21 21 21 20 21 21 20 20 21 22 23 23 23 24 24 23 23 24 25 26 26 27 28 29 30 30 31 32 33 33 33 34
21 21 22 22 22 22 21 21 21 21 21 21 20 20 21 21 22 22 23 23 23 23 23 25 25 25 26 27 28 29 30 30 31 32 33 33 33 34
21 22 22 22 22 22 22 22 21 21 21 21 20 20 20 21 22 22 23 23 24 24 25 25 25 26 26 27 27 28 28 29 30 30 31 32 33 34
22 23 23 23 23 22 22 22 21 21 21 21 21 20 20 20 21 21 22 22 23 24 24 25 25 26 26 26 26 27 27 28 29 30 30 32 33 34
23 23 23 23 22 22 22 22 22 22 22 21 22 22 22 22 22 22 22 23 23 22 23 24 25 25 25 25 25 26 27 27 28 29 30 31 32 32
23 23 23 23 23 23 23 23 23 22 23 23 23 23 23 23 23 23 23 23 22 22 23 23 23 24 24 25 25 25 26 27 28 29 30 31 31 32
23 23 23 23 24 23 23 23 23 23 23 23 23 24 24 24 24 24 23 23 23 22 22 22 23 23 24 23 24 24 25 26 27 28 29 29 30 31
24 24 24 23 23 22 23 23 23 23 23 23 23 24 24 24 24 24 23 24 23 23 23 23 23 23 23 23 24 25 25 25 26 26 26 27 28 28
24 23 23 22 22 22 23 23 23 23 23 23 24 24 24 24 24 24 24 24 24 24 23 23 23 23 23 24 24 25 25 25 25 25 26 26 27 27
23 23 22 22 22 23 23 23 24 24 24 24 24 24 23 23 24 24 24 24 23 23 23 23 22 23 24 24 24 24 25 25 25 25 25 25 25 25
23 23 23 23 24 24 24 24 24 24 24 24 24 24 24 24 24 24 23 23 22 22 21 22 22 22 23 23 23 23 23 24 24 24 24 23 23 23
23 23 24 24 24 24 24 24 24 24 24 24 24 24 24 24 24 23 23 23 23 22 22 23 23 23 23 23 22 22 22 22 22 22 21 21 21 22
Wind_Direction
297 294 291 288 285 282 279 279 278 275 272 273 271 268 267 267 266 263 260 259 257 255 253 252 252 251 252 252 251 250 249 249 250 250 250 251 250 249
298 295 294 290 285 282 281 280 281 280 276 274 274 271 269 268 269 267 265 261 259 257 256 254 253 252 251 251 251 252 251 250 250 250 250 249 250 250
307 302 299 289 285 285 284 285 283 281 279 276 274 273 273 272 273 270 268 265 264 261 259 258 257 254 252 251 251 252 251 250 250 250 250 250 251 251
310 308 304 301 296 291 292 290 287 286 284 280 275 274 275 274 272 271 269 268 266 267 264 260 258 256 254 252 252 252 251 251 250 249 250 250 250 251
309 307 304 303 302 299 297 296 292 290 288 285 282 278 276 274 272 272 271 270 269 269 268 264 259 257 255 253 253 253 252 251 251 250 249 250 250 251
305 303 301 301 300 300 298 296 295 293 291 288 286 282 281 277 275 275 273 271 269 268 267 266 262 258 255 254 253 252 251 250 249 249 250 250 251 251
305 304 301 300 300 300 299 297 294 292 289 288 285 284 284 282 279 277 276 273 271 270 269 268 263 258 254 253 253 252 252 251 250 250 250 251 251 252
304 304 301 298 300 301 300 298 296 292 288 286 284 283 282 283 282 280 277 275 274 272 271 268 264 261 257 257 254 252 252 251 250 251 250 251 251 252
301 302 300 299 299 300 301 301 300 296 292 288 284 283 283 282 281 280 278 276 275 273 271 268 266 264 262 261 258 255 254 254 252 252 252 253 254 254
301 300 300 300 298 298 298 299 299 297 295 290 285 284 282 281 281 281 280 277 277 275 272 270 268 268 265 261 258 256 256 255 254 254 255 256 257 258
299 300 300 301 300 300 298 297 296 297 297 294 290 285 282 281 281 281 280 277 276 274 274 272 271 269 267 264 262 260 260 260 257 257 257 259 260 260
300 301 302 302 301 301 300 298 296 296 297 296 293 289 286 282 281 280 279 276 275 276 275 275 274 272 268 265 264 263 263 262 261 259 259 259 260 261
300 300 301 301 300 299 299 299 297 296 295 296 295 292 289 286 283 280 279 278 278 279 280 278 276 274 272 268 266 266 265 264 262 261 261 261 262 263
297 299 299 299 298 298 298 299 298 298 297 297 296 295 292 289 286 283 282 280 279 281 281 279 277 276 274 271 268 267 266 266 265 264 264 263 264 264
296 298 299 299 298 297 298 298 298 297 296 297 297 296 295 295 293 289 287 284 282 281 281 279 279 279 276 274 272 270 269 267 266 265 266 265 265 265
296 298 298 298 297 297 297 297 298 297 295 295 295 294 294 294 294 292 290 288 285 284 284 282 280 279 278 277 275 272 271 269 268 267 267 268 267 266
296 297 298 299 298 297 296 297 298 297 296 295 294 294 294 294 294 292 291 289 288 286 284 284 282 279 278 279 278 275 273 272 271 270 270 271 271 269
294 296 298 298 297 297 297 296 296 296 295 295 295 294 294 294 294 293 292 291 289 286 284 284 282 280 280 280 278 277 276 275 274 273 272 272 271 271
295 296 297 297 297 297 297 297 296 296 296 296 296 297 295 293 293 292 290 289 289 288 286 283 281 280 279 280 280 278 277 277 276 275 274 273 271 271
298 297 297 297 297 297 298 298 297 297 297 298 298 298 296 293 291 291 291 291 290 288 286 284 282 281 279 279 279 277 277 277 277 276 275 274 273 273
298 298 298 297 297 299 299 298 297 297 298 298 299 299 297 295 294 295 293 291 290 288 285 284 284 284 282 281 280 279 278 278 277 278 277 274 274 273
298 297 296 297 298 299 300 300 300 299 298 298 298 299 299 298 297 296 295 293 290 288 287 286 286 286 285 285 283 281 280 278 277 277 277 275 275 275
298 296 296 298 300 301 300 299 299 300 300 299 299 300 299 299 298 296 295 294 291 288 287 287 287 287 286 285 285 283 281 280 278 276 275 275 276 277